Regional Weather Roundup
Issued by NWS Jackson, KY

Home | Current Version | Previous Version | Text Only | Print | Product List | Glossary Off
Versions: 1 2 3 4 5 6 7 8 9 10 11 12 13 14 15 16 17 18 19 20 21 22 23 24 25 26 27 28 29 30 31 32 33 34 35 36 37 38 39 40 41 42 43 44 45 46 47 48 49 50

000
ASUS43 KJKL 280919
RWRJKL

EAST KENTUCKY HOURLY WEATHER ROUNDUP
NATIONAL WEATHER SERVICE JACKSON KY
400 AM EST FRI NOV 28 2014

NOTE: "FAIR" INDICATES FEW OR NO CLOUDS BELOW 12,000 FEET WITH
NO SIGNIFICANT WEATHER AND/OR OBSTRUCTIONS TO VISIBILITY.

* THESE REPORTS ARE NOT UNDER NWS QUALITY CONTROL AND MAY NOT
  REPORT WEATHER SUCH AS PRECIPITATION AND FOG.

KYZ079-080-083-085-087-088-110-112-115-119-120-281000
...EASTERN KENTUCKY...

CITY           SKY/WX    TMP DP  RH WIND       PRES   REMARKS
JACKSON        CLOUDY    27  17  66 VRB3      30.35F
LONDON         CLOUDY    27  16  63 W6        30.39S WCI  20
SOMERSET*      CLOUDY    27  16  63 N3        30.43R
MONTICELLO*    CLOUDY    28  21  75 CALM      30.44R
HARLAN APT*    CLOUDY    28  21  74 CALM      30.34F
HAZARD APT*    CLOUDY    28  21  74 W6        30.36F WCI  22
BLACK MTN*       N/A     16  16 100 N1          N/A
PIKEVILLE APT* CLOUDY    27  21  80 CALM      30.33F
BIG SANDY*     CLOUDY    29  22  75 W5        30.35F WCI  24
MOREHEAD APT*  CLOUDY    27  21  80 W3        30.40S
ASHLAND*       CLOUDY    30  18  59 NW7       30.37R WCI  23
$$

KYZ035-036-041-042-044-050-067-078-099-281000
...CENTRAL KENTUCKY...

CITY           SKY/WX    TMP DP  RH WIND       PRES   REMARKS
MT STERLING*   CLOUDY    28  21  74 W3        30.40R
FLEMING/MASON* CLOUDY    27  23  86 W5        30.39S WCI  21
DANVILLE*      CLOUDY    28  19  69 W5        30.42R WCI  23
RICHMOND*      CLOUDY    27  19  74 W5        30.40R WCI  21
LEXINGTON      CLOUDY    27  20  75 SW7       30.40R WCI  19
FRANKFORT      MOCLDY    25  18  74 SW5       30.40R WCI  19
$$

KYZ091>093-OHZ055-061-077-WVZ005-015-034-035-042-281000
...SOUTHERN OHIO/WEST VIRGINIA...

CITY           SKY/WX    TMP DP  RH WIND       PRES   REMARKS
COVINGTON      FLURRIES  26  17  68 CALM      30.38S
COLUMBUS       FLURRIES  25  19  78 W9        30.35R WCI  15
DAYTON         MOCLDY    20  16  84 W5        30.36F WCI  13
WILMINGTON     CLOUDY    25  14  63 W8        30.36R WCI  16
HUNTINGTON     FLURRIES  28  24  85 NW7       30.36S WCI  21
CHARLESTON     LGT SNOW  28  24  85 W5        30.34S VSB 1   WCI  23
PINEVILLE*     CLOUDY    29  25  85 MISG      30.34S
BECKLEY        CLOUDY    23  15  71 NW9       30.23S WCI  13
BLUEFIELD      CLOUDY    24  15  68 NW8       30.22S WCI  15
$$

VAZ002-007-008-TNZ017-027-036-066-071-281000
...SOUTHWEST VIRGINIA/EAST TENNESSEE...

CITY           SKY/WX    TMP DP  RH WIND       PRES   REMARKS
WISE*          FLURRIES  27  19  74 W9        30.27F WCI  17
JONESVILLE*    CLOUDY    28  19  69 W5        30.37F WCI  23
ABINGDON*      PTCLDY    27  20  77 CALM      30.30S
BRISTOL        CLOUDY    28  22  78 SW5       30.34S WCI  23
KNOXVILLE      PTCLDY    27  21  78 W5        30.38F WCI  22
OAK RIDGE      MOCLDY    30  20  66 CALM      30.40F
CROSSVILLE     CLEAR     24  16  71 CALM      30.35F
NASHVILLE      MOCLDY    25  21  85 CALM      30.45S
$$

...KEY TO REMARKS...
VSB - VISIBILITY IN MILES
WCI - WIND CHILL INDEX
HX  - HEAT INDEX

$$


USA.gov is the U.S. government's official web portal to all federal, state and local government web resources and services.